Location: São Paulo
(23.5507°S, 46.6334°W)
Time: 18:22:13
(UTC-03:00)

Tiros 1 - Pass Details

Date: 18 February 2026
Orbit: 618 x 649 km, 48.4° (Epoch: 8 March)

Event Time Altitude Azimuth Distance (km) Brightness Sun altitude
Rises 04:57:36 0° 242° (WSW) 2,973 - -13.7°
Reaches altitude 10° 05:00:22 10° 257° (WSW) 2,054 - -13.1°
Exits shadow 05:02:14 18° 277° (W) 1,581 8.5 -12.7°
Maximum altitude 05:04:02 22° 308° (NW) 1,395 8.3 -12.3°
Drops below altitude 10° 05:07:40 10° 359° (N) 2,027 9.5 -11.6°
Sets 05:10:23 0° 14° (NNE) 2,924 10.5 -11.0°
